Date_and_time,latitude,longitude,wind_speed,RelWindDirFrom,WindDirFrom,air_pressure,air_temperature,relative_humidity,Temp,platform_speed_wrt_ground,air_pressure_at_mean_sea_level,platform_orientation
2019-10-08 23:50,50.6304116666667,-96.9807666666667,8.0,10.7,186,975.89,16.4,60,10.63,0.0,1001.77,27.6
2019-10-09 00:00,50.6304116666667,-96.9807666666667,7.5,9.9,186,975.91,16.2,61,10.62,0.0,1001.81,142.0
2019-10-09 00:10,50.63044,-96.980765,6.3,8.1,192,975.99,16.2,61,10.63,0.0,1001.89,142.0
2019-10-09 00:20,50.63043,-96.9807683333333,6.5,8.6,197,976.30,16.3,60,10.63,0.0,1002.22,142.0
2019-10-09 00:30,50.630425,-96.9807683333333,5.7,7.9,200,976.59,16.2,61,10.62,0.0,1002.52,142.0
2019-10-09 00:40,50.6304183333333,-96.9807633333333,4.2,6.3,195,976.73,16.0,62,10.61,0.0,1002.68,142.0
2019-10-09 00:50,50.6304233333333,-96.980755,3.1,4.1,198,976.79,15.9,63,10.60,0.0,1002.75,142.0
2019-10-09 01:00,50.6304233333333,-96.98076,2.7,3.7,190,976.80,15.9,62,10.60,0.0,1002.79,360.0
2019-10-09 01:10,50.6304233333333,-96.9807633333333,1.8,2.9,171,976.75,15.8,63,10.61,0.0,1002.73,360.0
2019-10-09 01:20,50.630425,-96.9807633333333,1.2,1.9,158,976.78,15.5,65,10.63,0.0,1002.78,360.0
2019-10-09 01:30,50.63042,-96.98076,0.6,1.6,61,976.80,15.7,66,10.66,0.0,1002.80,360.0
2019-10-09 01:40,50.63043,-96.9807666666667,1.0,1.7,50,976.87,15.1,70,10.68,0.0,1002.90,360.0
2019-10-09 01:50,50.6304316666667,-96.98077,2.1,2.7,358,977.09,13.7,78,10.68,0.0,1003.21,360.0
2019-10-09 02:00,50.6304316666667,-96.9807683333333,1.8,2.4,1,977.32,13.2,80,10.69,0.0,1003.46,228.3
2019-10-09 02:10,50.6304333333333,-96.9807666666667,3.4,5.6,295,977.67,13.6,77,10.71,0.0,1003.80,228.3
2019-10-09 02:20,50.6304316666667,-96.9807683333333,4.3,5.6,300,977.84,14.6,71,10.69,0.0,1003.93,228.3
2019-10-09 02:30,50.6304333333333,-96.9807666666667,14.1,25.1,351,977.73,13.6,74,10.64,0.0,1003.88,228.3
2019-10-09 02:40,50.6304333333333,-96.9807683333333,19.6,25.2,350,977.85,11.3,81,10.62,0.0,1004.11,228.3
2019-10-09 02:50,50.6304383333333,-96.9807666666667,19.6,24.3,354,977.97,10.9,84,10.66,0.0,1004.26,228.3
2019-10-09 03:00,50.6304366666667,-96.980765,19.9,23.6,358,978.06,10.8,84,10.68,0.0,1004.35,25.7
2019-10-09 03:10,50.6304316666667,-96.9807633333333,18.9,23.2,356,978.27,10.7,85,10.69,0.0,1004.59,25.7
2019-10-09 03:20,50.63043,-96.980765,18.1,22.3,355,978.51,10.5,87,10.71,0.0,1004.84,25.7
2019-10-09 03:30,50.6304283333333,-96.980765,18.3,23.7,355,978.69,10.4,87,10.69,0.0,1005.04,25.7
2019-10-09 03:40,50.6304266666667,-96.9807633333333,18.9,25.3,354,978.66,10.3,87,10.67,0.0,1005.09,25.7
2019-10-09 03:50,50.630425,-96.980765,20.3,25.9,353,978.73,10.1,86,10.64,0.0,1005.20,25.7
2019-10-09 04:00,50.6304283333333,-96.980765,19.6,24.3,353,978.79,9.9,87,10.61,0.0,1005.25,270.0
2019-10-09 04:10,50.6304266666667,-96.980755,19.5,24.1,357,978.71,9.8,89,10.62,0.0,1005.12,270.0
2019-10-09 04:20,50.6304283333333,-96.9807566666667,18.3,23.1,357,978.81,9.7,90,10.65,0.0,1005.27,270.0
2019-10-09 04:30,50.6304283333333,-96.9807583333333,18.5,22.6,353,978.87,9.6,87,10.66,0.0,1005.45,270.0
2019-10-09 04:40,50.6304283333333,-96.9807583333333,17.3,22.2,352,979.24,9.6,87,10.67,0.0,1005.85,270.0
2019-10-09 04:50,50.6304283333333,-96.9807583333333,17.9,23.3,353,979.28,9.5,86,10.68,0.0,1005.91,270.0
2019-10-09 05:00,50.6304283333333,-96.98076,18.8,24.4,351,979.42,9.3,85,10.69,0.0,1006.06,167.4
2019-10-09 05:10,50.6304283333333,-96.9807583333333,15.3,23.2,346,979.75,9.2,85,10.68,0.0,1006.41,167.4
2019-10-09 05:20,50.63043,-96.9807583333333,11.1,15.5,333,980.05,8.8,86,10.67,0.0,1006.74,167.4
2019-10-09 05:30,50.63043,-96.9807583333333,11.6,18.1,336,980.14,8.6,86,10.67,0.0,1006.85,167.4
2019-10-09 05:40,50.63043,-96.98076,12.4,18.1,333,980.11,8.4,85,10.66,0.0,1006.83,167.4
2019-10-09 05:50,50.63043,-96.98076,13.6,22.3,342,980.04,8.3,85,10.65,0.0,1006.78,167.4
2019-10-09 06:00,50.63043,-96.98076,13.6,20.2,335,980.23,8.2,84,10.63,0.0,1006.99,165.5
2019-10-09 06:10,50.63043,-96.98076,11.5,16.1,331,980.43,8.0,84,10.59,0.0,1007.20,165.5
2019-10-09 06:20,50.6304316666667,-96.9807583333333,11.1,16.3,327,980.50,7.9,85,10.58,0.0,1007.28,165.5
2019-10-09 06:30,50.6304383333333,-96.9808166666667,10.7,14.9,329,980.64,7.8,85,10.58,0.0,1007.44,165.5
2019-10-09 06:40,50.6304366666667,-96.9807583333333,11.6,17.5,336,980.54,7.7,86,10.58,0.0,1007.35,165.5
2019-10-09 06:50,50.6304133333333,-96.9807483333333,14.5,18.4,341,980.32,7.8,86,10.58,0.0,1007.12,165.5
2019-10-09 07:00,50.6304216666667,-96.980755,13.8,19.5,342,980.35,7.8,86,10.58,0.0,1007.16,131.7
2019-10-09 07:10,50.630425,-96.9807533333333,14.3,18.4,342,980.46,7.8,86,10.57,0.0,1007.29,131.7
2019-10-09 07:20,50.6304266666667,-96.98076,13.0,18.5,343,980.74,7.8,87,10.56,0.0,1007.59,131.7
2019-10-09 07:30,50.6304266666667,-96.9807616666667,11.2,17.0,336,981.20,7.8,86,10.54,0.0,1008.07,131.7
2019-10-09 07:40,50.6304283333333,-96.9807616666667,10.4,15.9,330,981.23,7.7,85,10.54,0.0,1008.12,131.7
2019-10-09 07:50,50.6304283333333,-96.9807616666667,11.1,15.6,331,981.02,7.6,85,10.52,0.0,1007.90,131.7
2019-10-09 08:00,50.6304366666667,-96.98077,11.1,16.8,330,981.02,7.5,85,10.50,0.0,1007.91,345.5
2019-10-09 08:10,50.63045,-96.9807483333333,10.9,17.2,329,980.97,7.6,85,10.49,0.0,1007.87,345.5
2019-10-09 08:20,50.6304366666667,-96.980755,10.2,14.7,328,981.12,7.5,85,10.48,0.0,1008.03,345.5
2019-10-09 08:30,50.630405,-96.9807433333333,11.0,16.7,318,981.30,7.5,85,10.47,0.0,1008.22,345.5
2019-10-09 08:40,50.6304183333333,-96.9807483333333,10.0,14.9,319,981.32,7.5,85,10.46,0.0,1008.24,345.5
2019-10-09 08:50,50.63042,-96.9807516666667,12.5,19.2,334,981.13,7.6,84,10.46,0.0,1008.04,345.5
2019-10-09 09:00,50.6304216666667,-96.9807516666667,16.3,23.6,347,981.09,7.9,84,10.46,0.0,1007.98,131.7
2019-10-09 09:10,50.630425,-96.9807566666667,22.8,30.7,350,981.00,8.0,84,10.45,0.0,1007.88,131.7
2019-10-09 09:20,50.630425,-96.9807583333333,22.9,27.9,352,981.25,7.9,81,10.44,0.0,1008.14,131.7
2019-10-09 09:30,50.63043,-96.9807466666667,17.6,23.2,341,981.37,7.8,79,10.44,0.0,1008.28,131.7
2019-10-09 09:40,50.63044,-96.9807533333333,15.4,22.2,339,981.57,7.5,79,10.42,0.0,1008.50,131.7
2019-10-09 09:50,50.6304383333333,-96.980755,13.7,19.5,334,981.84,7.3,77,10.36,0.0,1008.79,131.7
2019-10-09 10:00,50.6304383333333,-96.9807566666667,14.5,19.0,333,981.81,7.2,76,10.31,0.0,1008.77,360.0
2019-10-09 10:10,50.6304366666667,-96.9807566666667,14.2,20.1,335,981.90,7.1,76,10.28,0.0,1008.86,360.0
2019-10-09 10:20,50.6304366666667,-96.98076,14.0,19.8,334,981.92,7.0,76,10.27,0.0,1008.89,360.0
2019-10-09 10:30,50.6304366666667,-96.98076,14.0,20.1,338,981.99,7.0,77,10.31,0.0,1008.97,360.0
2019-10-09 10:40,50.6304366666667,-96.98076,13.6,20.4,337,982.05,6.9,77,10.37,0.0,1009.03,360.0
2019-10-09 10:50,50.6304283333333,-96.9807633333333,15.4,23.0,337,981.85,6.8,77,10.40,0.0,1008.82,360.0
2019-10-09 11:00,50.63043,-96.980755,14.0,23.2,335,982.09,6.7,78,10.41,0.0,1009.05,165.5
2019-10-09 11:10,50.6304266666667,-96.9807566666667,13.9,22.0,336,982.29,6.6,78,10.42,0.0,1009.26,165.5
2019-10-09 11:20,50.63043,-96.9807616666667,15.1,22.6,340,982.31,6.6,78,10.43,0.0,1009.30,165.5
2019-10-09 11:30,50.6304283333333,-96.9807616666667,13.0,18.5,335,982.50,6.5,78,10.42,0.0,1009.51,165.5
2019-10-09 11:40,50.63043,-96.9807616666667,14.5,19.2,337,982.52,6.5,78,10.40,0.0,1009.55,165.5
2019-10-09 11:50,50.63043,-96.9807616666667,15.1,21.8,337,982.54,6.4,78,10.38,0.0,1009.58,165.5
2019-10-09 12:00,50.63043,-96.9807616666667,14.8,21.7,338,982.58,6.3,79,10.32,0.0,1009.62,311.7
2019-10-09 12:10,50.63043,-96.9807616666667,15.7,20.6,337,982.61,6.1,80,10.31,0.0,1009.67,311.7
2019-10-09 12:20,50.63043,-96.9807633333333,15.6,22.6,343,982.83,6.1,81,10.31,0.0,1009.89,311.7
2019-10-09 12:30,50.630435,-96.9807866666667,16.2,23.7,343,982.90,6.0,81,10.26,0.0,1009.97,311.7
2019-10-09 12:40,50.6304183333333,-96.98075,17.4,27.6,345,982.99,6.1,82,10.21,0.0,1010.08,311.7
2019-10-09 12:50,50.6304166666667,-96.9807583333333,15.7,22.4,334,983.11,5.8,80,10.19,0.0,1010.21,311.7
2019-10-09 13:00,50.6304183333333,-96.98076,16.1,23.1,337,983.27,5.7,79,10.18,0.0,1010.38,360.0
2019-10-09 13:10,50.6304183333333,-96.9807616666667,15.5,21.7,339,983.37,5.6,80,10.22,0.0,1010.49,360.0
2019-10-09 13:20,50.6304283333333,-96.9807783333333,15.2,21.8,339,983.56,5.6,80,10.27,0.0,1010.69,360.0
2019-10-09 13:30,50.6304316666667,-96.9807783333333,15.4,22.5,342,983.68,5.7,81,10.28,0.0,1010.82,360.0
2019-10-09 13:40,50.6304366666667,-96.980775,15.2,20.8,340,983.63,5.7,81,10.27,0.0,1010.77,360.0
2019-10-09 13:50,50.6304366666667,-96.9807733333333,15.1,20.8,340,983.65,5.7,81,10.23,0.0,1010.79,360.0
2019-10-09 14:00,50.630435,-96.9807716666667,15.5,24.4,339,983.58,5.7,82,10.21,0.0,1010.72,323.4
2019-10-09 14:10,50.6304316666667,-96.9807816666667,14.2,19.3,333,983.77,5.7,81,10.22,0.0,1010.93,323.4
2019-10-09 14:20,50.6304116666667,-96.98077,13.2,20.3,320,984.24,5.4,80,10.22,0.0,1011.43,323.4
2019-10-09 14:30,50.6304316666667,-96.9807716666667,13.5,19.2,323,984.56,5.0,82,10.22,0.0,1011.77,323.4
2019-10-09 14:40,50.6304316666667,-96.9807716666667,14.2,20.3,321,984.69,4.7,83,10.22,0.0,1011.93,323.4
2019-10-09 14:50,50.630425,-96.9807483333333,17.1,25.6,331,984.60,4.7,82,10.17,0.0,1011.85,323.4
2019-10-09 15:00,50.6304266666667,-96.9807466666667,18.3,25.6,335,984.47,4.8,81,10.18,0.0,1011.71,90.0
2019-10-09 15:10,50.6304316666667,-96.98075,18.9,28.7,335,984.21,4.8,80,10.18,0.0,1011.44,90.0
2019-10-09 15:20,50.630435,-96.9807666666667,20.0,30.4,338,984.05,4.9,79,10.17,0.0,1011.28,90.0
2019-10-09 15:30,50.630435,-96.9807683333333,22.4,31.0,341,983.78,5.0,76,10.13,0.0,1010.99,90.0
2019-10-09 15:40,50.6304133333333,-96.9807683333333,23.5,31.3,344,983.69,5.1,75,10.11,0.0,1010.90,90.0
2019-10-09 15:50,50.6304183333333,-96.980765,23.6,32.1,347,983.59,5.3,75,10.10,0.0,1010.78,90.0
2019-10-09 16:00,50.6304133333333,-96.98079,23.9,32.0,349,983.63,5.4,77,10.08,0.0,1010.82,270.0
2019-10-09 16:10,50.6304116666667,-96.980775,24.1,32.1,347,983.70,5.6,77,10.06,0.0,1010.90,270.0
2019-10-09 16:20,50.6304183333333,-96.980765,26.5,35.5,353,983.74,5.7,77,10.04,0.0,1010.95,270.0
2019-10-09 16:30,50.6304316666667,-96.980775,28.9,34.9,357,983.70,5.8,78,10.02,0.0,1010.91,270.0
2019-10-09 16:40,50.63042,-96.98078,29.3,35.5,357,983.47,5.9,78,9.98,0.0,1010.67,270.0
2019-10-09 16:50,50.6304233333333,-96.9807766666667,30.6,36.4,359,983.21,5.9,78,9.96,0.0,1010.41,270.0
2019-10-09 17:00,50.6304283333333,-96.9807733333333,29.6,35.4,0,983.12,5.9,79,9.93,0.0,1010.31,360.0
2019-10-09 17:10,50.630435,-96.980775,28.3,33.7,4,983.46,6.0,80,9.91,0.0,1010.65,360.0
2019-10-09 17:20,50.63043,-96.98076,27.0,33.7,1,983.85,6.0,79,9.93,0.0,1011.05,360.0
2019-10-09 17:30,50.6304316666667,-96.9807516666667,25.1,31.1,1,984.13,6.0,81,9.96,0.0,1011.34,360.0
2019-10-09 17:40,50.630425,-96.980765,24.9,31.6,357,984.04,5.9,80,9.95,0.0,1011.23,360.0
2019-10-09 17:50,50.63043,-96.9807583333333,24.3,30.9,354,984.13,5.7,79,9.93,0.0,1011.33,360.0
2019-10-09 18:00,50.6304333333333,-96.9807583333333,24.9,31.0,354,984.05,5.6,80,9.93,0.0,1011.24,305.3
2019-10-09 18:10,50.6304433333333,-96.98076,24.6,32.4,357,984.20,5.7,82,9.91,0.0,1011.39,305.3
2019-10-09 18:20,50.6304316666667,-96.9807633333333,25.8,34.5,0,984.15,5.6,84,9.90,0.0,1011.33,305.3
2019-10-09 18:30,50.6304183333333,-96.9807516666667,28.1,34.2,354,984.00,5.3,83,9.88,0.0,1011.19,305.3
2019-10-09 18:40,50.630425,-96.980775,28.4,35.0,1,984.08,5.4,82,9.86,0.0,1011.27,305.3
2019-10-09 18:50,50.6304033333333,-96.9807833333333,25.8,31.9,355,984.54,5.5,79,9.84,0.0,1011.73,305.3
2019-10-09 19:00,50.6304216666667,-96.9807533333333,26.9,31.7,357,984.68,5.5,78,9.81,0.0,1011.87,78.4
2019-10-09 19:10,50.6304266666667,-96.98075,24.5,31.6,356,985.04,5.5,78,9.79,0.0,1012.24,78.4
2019-10-09 19:20,50.63042,-96.9807716666667,22.4,29.4,348,985.36,5.3,79,9.78,0.0,1012.59,78.4
2019-10-09 19:30,50.63042,-96.980775,21.6,28.7,351,985.76,5.2,79,9.77,0.0,1013.00,78.4
2019-10-09 19:40,50.6304216666667,-96.9807733333333,25.3,30.4,353,985.61,5.2,78,9.79,0.0,1012.86,78.4
2019-10-09 19:50,50.6304216666667,-96.9807683333333,25.7,35.4,352,985.47,5.1,78,9.82,0.0,1012.72,78.4
2019-10-09 20:00,50.6304233333333,-96.9807683333333,23.4,30.4,347,985.85,4.9,78,9.84,0.0,1013.12,90.0
2019-10-09 20:10,50.630435,-96.9807666666667,25.7,32.7,352,985.58,5.0,79,9.83,0.0,1012.84,90.0
2019-10-09 20:20,50.6304266666667,-96.9807716666667,17.2,24.1,332,985.80,4.3,83,9.83,0.0,1013.12,90.0
2019-10-09 20:30,50.6304183333333,-96.9807583333333,16.9,23.5,335,985.77,3.7,92,9.82,0.0,1013.11,90.0
2019-10-09 20:40,50.6304266666667,-96.980765,16.2,23.0,332,985.79,3.5,96,9.82,0.0,1013.13,90.0
2019-10-09 20:50,50.6304283333333,-96.980765,15.9,22.7,330,986.04,3.4,97,9.83,0.0,1013.41,90.0
2019-10-09 21:00,50.63043,-96.980765,14.7,22.2,328,986.41,3.3,98,9.83,0.0,1013.79,192.6
2019-10-09 21:10,50.63043,-96.980765,15.5,23.8,333,986.58,3.3,98,9.82,0.0,1013.98,192.6
2019-10-09 21:20,50.63043,-96.9807633333333,16.2,23.5,331,986.56,3.3,98,9.81,0.0,1013.95,192.6
2019-10-09 21:30,50.6304216666667,-96.980765,17.0,24.3,334,986.46,3.4,98,9.79,0.0,1013.85,192.6
2019-10-09 21:40,50.6304216666667,-96.9807616666667,16.6,23.6,333,986.74,3.4,98,9.78,0.0,1014.14,192.6
2019-10-09 21:50,50.6304216666667,-96.980765,16.4,22.7,334,986.91,3.4,98,9.77,0.0,1014.33,192.6
2019-10-09 22:00,50.6304233333333,-96.9807633333333,16.4,23.1,336,987.15,3.4,99,9.76,0.0,1014.57,305.3
2019-10-09 22:10,50.6304333333333,-96.98078,15.9,24.3,332,987.27,3.3,99,9.76,0.0,1014.73,305.3
2019-10-09 22:20,50.6304316666667,-96.9807716666667,16.3,23.5,334,987.39,3.3,99,9.76,0.0,1014.88,305.3
2019-10-09 22:30,50.6304366666667,-96.9807683333333,16.9,24.1,337,987.37,3.2,99,9.75,0.0,1014.87,305.3
2019-10-09 22:40,50.6304366666667,-96.980765,17.2,25.8,335,987.39,3.1,99,9.75,0.0,1014.91,305.3
2019-10-09 22:50,50.6304333333333,-96.980765,16.5,22.8,338,987.51,3.2,99,9.73,0.0,1015.04,305.3
2019-10-09 23:00,50.6303983333333,-96.9807633333333,16.1,21.8,338,987.71,3.1,99,9.73,0.0,1015.25,170.2
2019-10-09 23:10,50.6304266666667,-96.9807766666667,17.0,24.5,333,987.79,2.9,99,9.72,0.0,1015.34,170.2
2019-10-09 23:20,50.6304283333333,-96.980765,16.2,23.8,333,988.08,2.8,99,9.71,0.0,1015.64,170.2
2019-10-09 23:30,50.63043,-96.9807633333333,15.3,21.1,331,988.39,2.8,99,9.67,0.0,1015.96,170.2
2019-10-09 23:40,50.6304266666667,-96.9807533333333,16.0,22.8,333,988.34,2.7,99,9.64,0.0,1015.90,170.2
2019-10-09 23:50,50.6304216666667,-96.9807616666667,15.3,21.5,332,988.58,2.7,99,9.62,0.0,1016.15,170.2
